Weather in Sputnik

Russia / Samara Oblast     53°15′39″N   50°25′13″E
temp.,
°C
wind,
m/s
gust,
m/s
humid.,
%
clouds,
%
prec.,
mm/h
press.,
hPa
HPBL,
m
25 february, thu
thu2501:00−28nw33961 0.0 103536
04:00−28nw229523 0.0 103620
07:00−29w119715 0.0 103519
10:00−24s239156 0.0 1034131
13:00−20s4689100 0.0 1031316
16:00−18s6989100 0.0 1028416
19:00−17s61296100 1.2 1025559
22:00−16s61296100 2.6 1022615
26 february, fri
fri2601:00−15sse61195100 1.3 1019598
04:00−14sse51195100 2.3 1018540
07:00−13se5995100 0.6 1016391
10:00−12se5894100 1.0 1016446
13:00−10se5892100 0.3 1016540
16:00−9se5892100 0.4 1015557
19:00−11se61094100 0.1 1013355
22:00−10se71295100 0.7 1009396
27 february, sat
sat2701:00−7sse61296100 3.6 1003424
04:00−3sse4897100 6.9 1001234
07:00+1w410100100 0.3 999355
10:000wsw5910099 0.3 999404
13:00+1wsw5910097 0.1 999495
16:00+1sw4810099 0.1 1000392
19:00−1sw359699 0.0 1000116
22:00−3sw339898 0.0 100055
28 february, sun
sun2801:00−2sw3698100 0.2 999204
04:00−1sw3898100 0.6 1000302
07:00−3sw3697100 0.4 1001196
10:00−2wsw2497100 1.2 1002220
13:00−6nnw589498 0.4 1004250
16:00−7nnw699295 0.6 1006391
19:00−11nnw5109294 0.1 1008352
22:00−13nnw499494 0.1 1011264
1 march, mon
mon101:00−13nnw5109394 0.1 1013324
04:00−15nnw5109395 0.1 1014289
07:00−17nnw6119397 0.0 1017301
10:00−17nnw699288 0.1 1018298
13:00−15nnw699162 0.0 1020355
16:00−14nnw599068 0.0 1021409
19:00−18nnw489471 0.0 1023161
22:00−20nw239736 0.0 102428